• In United Kingdom
  • List of Countries
  • For 7 days
  • Water Temperature
  • Satellite Maps
  • Weather Map
  • Weather Widgets
  • user-avatar
    Login

    Hourly Weather Artashat

    Today, 25 November, Saturday

    Time Temperature Precipitation Wind Pressure Humidity
    00:00 -9°C° 0 mm 2 mps 599 mmHg 50%
    01:00 -9°C° 0 mm 2 mps 599 mmHg 52%
    02:00 -9°C° 0 mm 2 mps 599 mmHg 54%
    03:00 -9°C° 0 mm 3 mps 599 mmHg 56%
    04:00 -9°C° 0 mm 3 mps 599 mmHg 58%
    05:00 -9°C° 0 mm 3 mps 599 mmHg 60%
    06:00 -8°C° 0 mm 2 mps 600 mmHg 62%
    07:00 -9°C° 0 mm 3 mps 600 mmHg 60%
    08:00 -8°C° 0 mm 3 mps 601 mmHg 58%
    09:00 -8°C° 0 mm 3 mps 602 mmHg 57%
    10:00 -6°C° 0 mm 2 mps 602 mmHg 52%
    11:00 -5°C° 0 mm 2 mps 602 mmHg 48%
    12:00 -4°C° 0 mm 2 mps 603 mmHg 44%
    13:00 -4°C° 0 mm 2 mps 603 mmHg 44%
    14:00 -4°C° 0 mm 2 mps 603 mmHg 44%
    15:00 -4°C° 0 mm 2 mps 603 mmHg 43%
    16:00 -5°C° 0 mm 2 mps 603 mmHg 48%
    17:00 -6°C° 0 mm 2 mps 603 mmHg 52%
    18:00 -7°C° 0 mm 2 mps 603 mmHg 56%
    19:00 -7°C° 0 mm 2 mps 603 mmHg 58%
    20:00 -8°C° 0 mm 2 mps 603 mmHg 59%
    21:00 -8°C° 0 mm 2 mps 603 mmHg 60%
    22:00 -8°C° 0 mm 2 mps 603 mmHg 60%
    23:00 -8°C° 0 mm 2 mps 603 mmHg 60%

    Tomorrow, 26 November, Sunday

    Time Temperature Precipitation Wind Pressure Humidity
    00:00 -9°C° 0 mm 2 mps 603 mmHg 60%
    01:00 -8°C° 0 mm 1 mps 603 mmHg 60%
    02:00 -8°C° 0 mm 1 mps 603 mmHg 60%
    03:00 -8°C° 0 mm 1 mps 603 mmHg 60%
    04:00 -8°C° 0 mm 1 mps 602 mmHg 60%
    05:00 -8°C° 0 mm 1 mps 602 mmHg 60%
    06:00 -8°C° 0 mm 1 mps 602 mmHg 60%
    07:00 -7°C° 0 mm 1 mps 602 mmHg 57%
    08:00 -6°C° 0 mm 1 mps 603 mmHg 54%
    09:00 -3°C° 0 mm 1 mps 603 mmHg 51%
    10:00 -2°C° 0 mm 1 mps 603 mmHg 49%
    11:00 -1°C° 0 mm 1 mps 603 mmHg 47%
    12:00 -2°C° 0 mm 2 mps 603 mmHg 45%
    13:00 -2°C° 0 mm 2 mps 602 mmHg 45%
    14:00 -2°C° 0 mm 2 mps 602 mmHg 46%
    15:00 -1°C° 0 mm 2 mps 602 mmHg 46%
    16:00 -3°C° 0 mm 2 mps 601 mmHg 50%
    17:00 -4°C° 0 mm 2 mps 601 mmHg 54%
    18:00 -5°C° 0 mm 2 mps 601 mmHg 58%
    19:00 -6°C° 0 mm 2 mps 601 mmHg 59%
    20:00 -6°C° 0 mm 2 mps 601 mmHg 60%
    21:00 -6°C° 0 mm 2 mps 601 mmHg 61%
    22:00 -6°C° 0 mm 2 mps 601 mmHg 61%
    23:00 -7°C° 0 mm 2 mps 601 mmHg 62%

    Day after tomorrow, 27 November, Monday

    Time Temperature Precipitation Wind Pressure Humidity
    00:00 -7°C° 0 mm 2 mps 601 mmHg 63%
    01:00 -7°C° 0 mm 2 mps 601 mmHg 63%
    02:00 -6°C° 0 mm 1 mps 600 mmHg 64%
    03:00 -6°C° 0 mm 1 mps 600 mmHg 65%
    04:00 -6°C° 0 mm 1 mps 600 mmHg 65%
    05:00 -7°C° 0 mm 2 mps 600 mmHg 66%
    06:00 -7°C° 0 mm 2 mps 600 mmHg 67%
    07:00 -4°C° 0 mm 1 mps 600 mmHg 63%
    08:00 -3°C° 0 mm 1 mps 601 mmHg 60%
    09:00 -2°C° 0 mm 1 mps 602 mmHg 56%
    10:00 -1°C° 0 mm 1 mps 602 mmHg 53%
    11:00 0°C° 0 mm 1 mps 601 mmHg 51%
    12:00 -1°C° 0 mm 2 mps 601 mmHg 48%
    13:00 +1°C° 0 mm 2 mps 601 mmHg 48%
    14:00 +1°C° 0 mm 2 mps 601 mmHg 48%
    15:00 +1°C° 0 mm 2 mps 601 mmHg 47%
    16:00 -1°C° 0 mm 2 mps 601 mmHg 52%
    17:00 -3°C° 0 mm 2 mps 600 mmHg 56%
    18:00 -4°C° 0 mm 2 mps 600 mmHg 61%
    19:00 -3°C° 0 mm 1 mps 600 mmHg 61%
    20:00 -3°C° 0 mm 1 mps 600 mmHg 62%
    21:00 -3°C° 0 mm 1 mps 600 mmHg 62%
    22:00 -3°C° 0 mm 1 mps 600 mmHg 62%
    23:00 -4°C° 0 mm 1 mps 600 mmHg 63%

    28 November, Tuesday

    Time Temperature Precipitation Wind Pressure Humidity
    00:00 -4°C° 0 mm 1 mps 600 mmHg 63%
    01:00 -4°C° 0 mm 1 mps 600 mmHg 63%
    02:00 -4°C° 0 mm 1 mps 600 mmHg 63%
    03:00 -4°C° 0 mm 1 mps 600 mmHg 63%
    04:00 -6°C° 0 mm 1 mps 600 mmHg 63%
    05:00 -6°C° 0 mm 1 mps 600 mmHg 64%
    06:00 -6°C° 0 mm 1 mps 600 mmHg 64%
    07:00 -3°C° 0 mm 1 mps 601 mmHg 59%
    08:00 -2°C° 0 mm 1 mps 602 mmHg 55%
    09:00 -1°C° 0 mm 1 mps 602 mmHg 50%
    10:00 0°C° 0 mm 1 mps 602 mmHg 48%
    11:00 +1°C° 0 mm 1 mps 602 mmHg 45%
    12:00 +2°C° 0 mm 1 mps 602 mmHg 43%
    13:00 +3°C° 0 mm 1 mps 602 mmHg 43%
    14:00 +3°C° 0 mm 1 mps 602 mmHg 44%
    15:00 +2°C° 0 mm 2 mps 602 mmHg 44%
    16:00 +2°C° 0 mm 1 mps 601 mmHg 48%
    17:00 0°C° 0 mm 1 mps 601 mmHg 52%
    18:00 -1°C° 0 mm 1 mps 601 mmHg 56%
    19:00 -1°C° 0 mm 1 mps 601 mmHg 55%
    20:00 -1°C° 0 mm 1 mps 601 mmHg 55%
    21:00 -1°C° 0 mm 1 mps 601 mmHg 54%
    22:00 -2°C° 0 mm 1 mps 601 mmHg 54%
    23:00 -2°C° 0 mm 1 mps 601 mmHg 54%

    29 November, Wednesday

    Time Temperature Precipitation Wind Pressure Humidity
    00:00 -2°C° 0 mm 1 mps 601 mmHg 54%
    01:00 -3°C° 0 mm 1 mps 601 mmHg 54%
    02:00 -3°C° 0 mm 1 mps 601 mmHg 54%
    03:00 -3°C° 0 mm 1 mps 601 mmHg 53%
    04:00 -3°C° 0 mm 1 mps 601 mmHg 53%
    05:00 -3°C° 0 mm 1 mps 601 mmHg 53%
    06:00 -3°C° 0 mm 1 mps 601 mmHg 54%
    07:00 -2°C° 0 mm 1 mps 602 mmHg 50%
    08:00 -1°C° 0 mm 1 mps 602 mmHg 47%
    09:00 +1°C° 0 mm 1 mps 603 mmHg 44%
    10:00 +2°C° 0 mm 1 mps 603 mmHg 42%
    11:00 +2°C° 0 mm 2 mps 603 mmHg 41%
    12:00 +3°C° 0 mm 2 mps 603 mmHg 40%
    13:00 +3°C° 0 mm 2 mps 602 mmHg 41%
    14:00 +3°C° 0 mm 2 mps 602 mmHg 41%
    15:00 +3°C° 0 mm 2 mps 602 mmHg 42%
    16:00 +2°C° 0 mm 2 mps 602 mmHg 46%
    17:00 +1°C° 0 mm 2 mps 601 mmHg 50%
    18:00 +1°C° 0 mm 1 mps 601 mmHg 54%
    19:00 0°C° 0 mm 1 mps 601 mmHg 55%
    20:00 0°C° 0 mm 1 mps 601 mmHg 56%
    21:00 -2°C° 0 mm 2 mps 601 mmHg 58%
    22:00 -2°C° 0 mm 2 mps 601 mmHg 59%
    23:00 -2°C° 0 mm 2 mps 601 mmHg 60%

    30 November, Thursday

    Time Temperature Precipitation Wind Pressure Humidity
    00:00 -2°C° 0 mm 2 mps 601 mmHg 61%
    01:00 -2°C° 0.1 mm 2 mps 601 mmHg 63%
    02:00 -2°C° 0.1 mm 2 mps 601 mmHg 65%
    03:00 -2°C° 0.1 mm 2 mps 600 mmHg 67%
    04:00 0°C° 0.1 mm 1 mps 600 mmHg 69%
    05:00 0°C° 0.1 mm 1 mps 600 mmHg 70%
    06:00 -1°C° 0.1 mm 1 mps 600 mmHg 72%
    07:00 0°C° 0.1 mm 1 mps 601 mmHg 71%
    08:00 +1°C° 0.1 mm 1 mps 601 mmHg 69%
    09:00 +1°C° 0.1 mm 1 mps 601 mmHg 68%
    10:00 +2°C° 0.1 mm 1 mps 601 mmHg 67%
    11:00 +2°C° 0.1 mm 1 mps 601 mmHg 66%
    12:00 +3°C° 0.1 mm 1 mps 601 mmHg 64%
    13:00 +3°C° 0.1 mm 1 mps 601 mmHg 65%
    14:00 +3°C° 0.1 mm 1 mps 601 mmHg 66%
    15:00 +3°C° 0.1 mm 1 mps 601 mmHg 67%
    16:00 +2°C° 0.1 mm 1 mps 601 mmHg 70%
    17:00 +1°C° 0.1 mm 1 mps 601 mmHg 73%
    18:00 0°C° 0.1 mm 1 mps 601 mmHg 76%
    19:00 0°C° 0 mm 1 mps 602 mmHg 76%
    20:00 -1°C° 0 mm 1 mps 602 mmHg 77%
    21:00 -1°C° 0 mm 1 mps 602 mmHg 78%
    22:00 -1°C° 0 mm 1 mps 602 mmHg 78%
    23:00 -2°C° 0 mm 1 mps 602 mmHg 79%
    Show more